EST,Max TemperatureF,Mean TemperatureF,Min TemperatureF,Max Dew PointF,MeanDew PointF,Min DewpointF,Max Humidity, Mean Humidity, Min Humidity, Max Sea Level PressureIn, Mean Sea Level PressureIn, Min Sea Level PressureIn, Max VisibilityMiles, Mean VisibilityMiles, Min VisibilityMiles, Max Wind SpeedMPH, Mean Wind SpeedMPH, Max Gust SpeedMPH,PrecipitationIn, CloudCover, Events, WindDirDegrees
2012-12-1,79,76,72,65,61,58,68,59,50,30.20,30.16,30.13,10,10,7,21,12,25,0.02,5,Rain,68
2012-12-2,80,77,73,63,62,60,68,61,54,30.24,30.19,30.16,10,10,10,21,15,25,T,5,,83
2012-12-3,79,76,72,62,58,50,68,56,44,30.25,30.20,30.17,10,10,10,18,12,24,0.00,3,,78
2012-12-4,79,75,71,61,57,50,66,55,43,30.24,30.19,30.15,10,10,10,21,13,24,T,4,Rain,78
2012-12-5,80,76,71,63,61,59,68,60,51,30.15,30.08,30.03,10,10,10,15,10,18,0.00,5,,98
2012-12-6,80,75,69,68,65,61,90,72,54,30.01,29.96,29.91,10,10,10,18,7,24,0.05,5,Rain,88
2012-12-7,81,73,65,68,65,63,93,76,58,29.99,29.95,29.91,10,10,9,16,5,20,T,3,Rain,139
2012-12-8,83,74,65,72,68,64,93,78,63,30.04,30.00,29.96,10,10,10,15,7,18,0.03,5,,126
2012-12-9,83,76,68,73,71,68,97,83,69,30.09,30.03,29.99,10,10,4,13,4,20,T,5,Rain,170
2012-12-10,85,77,68,74,70,66,97,83,69,30.02,29.97,29.91,10,10,10,20,8,24,T,5,Rain,169
2012-12-11,86,79,71,75,71,68,94,80,65,30.05,29.98,29.92,10,9,2,18,9,23,0.53,7,Rain-Thunderstorm,178
2012-12-12,82,77,71,72,71,70,93,79,65,30.09,30.05,30.02,10,10,10,20,7,24,0.00,6,,168
2012-12-13,77,71,65,73,68,63,94,84,73,30.11,30.08,30.02,10,7,0,18,9,22,0.45,7,Fog-Rain,309
2012-12-14,80,72,63,66,62,56,93,69,45,30.13,30.09,30.06,10,10,10,20,10,28,0.04,4,Rain,14
2012-12-15,80,75,70,64,62,60,84,69,54,30.11,30.06,30.03,10,10,10,18,11,23,T,5,Rain,81
2012-12-16,78,74,70,70,67,64,84,76,68,30.05,30.00,29.96,10,10,10,15,7,18,T,6,Rain,117
2012-12-17,83,74,65,69,65,63,100,77,54,29.98,29.95,29.88,10,10,7,16,6,21,T,5,Fog-Rain,234
2012-12-18,84,75,66,70,66,62,97,74,51,30.01,29.96,29.91,10,8,1,17,7,21,0.00,4,,262
2012-12-19,81,69,57,65,59,53,87,65,42,30.09,30.05,30.01,10,10,10,12,5,16,0.00,1,,54
2012-12-20,81,73,65,65,63,60,81,66,51,30.09,30.04,29.97,10,10,10,17,9,24,0.00,3,,151
2012-12-21,72,61,49,67,49,31,87,58,28,30.17,30.04,29.94,10,10,6,26,15,33,T,5,Rain,291
2012-12-22,66,55,43,35,27,19,61,40,18,30.25,30.20,30.17,10,10,10,20,11,25,0.00,1,,315
2012-12-23,72,59,46,54,43,32,72,58,44,30.24,30.18,30.15,10,10,10,12,5,15,0.00,4,,341
2012-12-24,77,66,54,58,54,50,86,66,46,30.13,30.07,30.00,10,10,10,16,4,28,0.00,5,,182
2012-12-25,79,68,57,62,59,55,93,71,48,30.05,29.99,29.94,10,10,10,18,7,24,0.00,5,,147
2012-12-26,85,74,62,68,65,58,93,72,51,29.97,29.90,29.82,10,10,7,28,13,37,0.02,4,Rain,231
2012-12-27,72,61,50,56,47,39,89,60,31,30.07,30.03,29.97,10,10,10,14,5,18,0.00,2,,312
2012-12-28,76,64,52,70,61,49,93,79,64,30.09,30.03,29.98,10,10,10,14,5,17,0.00,5,Rain,132
2012-12-29,82,78,73,72,68,50,87,75,63,30.10,29.98,29.92,10,10,10,22,11,28,0.00,4,,221
2012-12-30,68,59,49,54,49,43,86,72,58,30.29,30.22,30.11,10,10,10,23,14,29,0.00,5,,358
2012-12-31,75,71,66,59,54,51,63,58,53,30.32,30.25,30.20,10,10,10,20,13,23,0.00,6,,100